COSMOS 2251 DEB, 34722

Orbit data source: Space-Track

COSMOS 2251 DEB, 34722 is space debris in LEO originally from a launch on Wed, 16 Jun 1993 UTC launched from the Plesetsk Missile And Space Complex (PKMTR). The debris from Iridium 33, an American commercial communications satellite, has been tracked extensively since its accidental collision with the defunct Russian satellite Cosmos 2251 in 2009. This event, occurring at high speed in low Earth orbit (LEO), generated thousands of pieces of space debris, significantly increasing the risk of further collisions. The Iridium 33 debris cloud has impacted space traffic management and orbital debris mitigation strategies, making it a subject of ongoing study in space situational awareness.

Loading next visibility...
Identifier
34722, 1993-036YQ
Orbit
LEO
Country
Flag of CISCIS
Related business
Manufacturer
Unknown
Mission
Spacecraft
Bus & Motor
Unknown
Mass
Unknown
Launch date (UTC)
1993-06-16 (33 years ago)
Launch vehicle
Unknown
Launch site
Plesetsk Missile And Space Complex (PKMTR)
Object type
Payload
Rocket body
Debris
Shape & HBR
Unknown shape, 0.1 m
Radar Cross Section
Small (<0.1 m²)

Expand to show TLE details & history
Last TLE update: 2 days ago

TLE from 2 days ago
0 COSMOS 2251 DEB
1 34722U 93036YQ  26035.33031957  .00001238  00000-0  60680-3 0  9993
2 34722  73.8725 240.4849 0163806 156.1470  22.8644 14.12096237870018
Epoch: 2026-02-04T07:55Z
TLE epoch observation values (Epoch: 2026-02-04T07:55:39.610Z)
Latitude
0.12635°
Longitude
167.03507°
Altitude
745.914 km
Speed
7.538 km/s
True Right ascension
04h 01m 47s
True Declination
0° 07' 32"
Sunlit
Object was in daylight at epoch
Visualization orbit readout
Latitude
Unknown
Longitude
Unknown
Altitude
Unknown
Speed
Unknown
Apparent Right ascension
Unknown
Apparent Declination
Unknown
Sunlit
N/A
Visualization observer readout
Local Sidereal Time
04:51:39
Azimuth
Unknown
Elevation
Unknown
Doppler factor
Unknown
Orbital elements
Apogee altitude
968.27 km
Perigee altitude
731.472 km
Semi-major axis
7,228.008 km
Eccentricity
0.01638
Inclination
73.8725°
RAAN
240.4849°
Arg. of periapsis
156.147°
True anomaly
23.60773°
Mean anomaly
22.8644°
Eccentric anomaly
23.23465°
Mean motion
3.53196 °/min
Orbital period
101.93 mins
BSTAR
0.0006068

Documentation

Showing up to 5 results
|